Weather in Krasnoyarka

Russia / Novosibirsk Oblast     55°32′07″N   76°18′15″E
temp.,
°C
wind,
m/s
gust,
m/s
humid.,
%
clouds,
%
prec.,
mm/h
press.,
hPa
HPBL,
m
28 february, sun
sun2801:00−30s349939 0.0 103447
04:00−30sse349967 0.0 103360
07:00−30se449960 0.0 103180
10:00−26se599598 0.0 1029238
13:00−21se599399 0.0 1027305
16:00−18ese61093100 0.0 1024377
19:00−18ese6109499 0.1 1021407
22:00−18e51095100 0.1 1018301
1 march, mon
mon101:00−17e61196100 0.3 1015279
04:00−15ene61195100 0.6 1011329
07:00−14ene71194100 1.6 1009337
10:00−14ene61293100 0.3 1008353
13:00−13ne61095100 0.9 1008362
16:00−11ne6994100 0.9 1008424
19:00−12ne5893100 1.3 1010404
22:00−14nne489499 0.1 1012292
2 march, tue
tue201:00−17nne339788 0.1 101443
04:00−19nne239892 0.0 101625
07:00−20ne129991 0.1 101720
10:00−18sse009784 0.1 101723
13:00−15se129292 0.1 1017232
16:00−13s2289100 0.1 1016361
19:00−14se1296100 0.3 101621
22:00−15sse229697 0.1 101522
3 march, wed
wed301:00−16s129797 0.2 101520
04:00−17ssw019796 0.2 101420
07:00−17w009798 0.4 101520
10:00−16wsw129695 0.1 101658
13:00−14wsw239184 0.1 1017256
16:00−13sw349196 0.0 1018388
19:00−15ssw349592 0.0 101962
22:00−17s489696 0.0 1019168
4 march, thu
thu401:00−18s499597 0.0 1019227
04:00−17s599597 0.0 1018253
07:00−16sse599498 0.0 1018257
10:00−16sse51194100 0.0 1016276
13:00−12sse61192100 0.0 1015331
16:00−10sse71290100 0.0 1013372
19:00−10sse7148998 0.0 1011355
22:00−10sse6129299 0.1 1010394